Temperature
22 24 25 25 26 25 24 22 22 22 22 22 22 22 23 23 23 23 23 23 23 23 23 22 22 22 22 22 22 21 21 21 21 20 20 20 19 19 19 19 19 19 18 18
23 24 24 25 25 26 25 24 23 22 22 21 22 22 22 22 22 22 22 22 22 22 22 22 22 22 22 21 21 21 21 21 21 20 20 20 19 19 19 19 18 18 18 18
21 23 24 23 24 24 24 23 22 22 21 21 21 21 21 22 22 22 21 21 21 22 22 22 21 21 21 21 21 21 20 20 20 20 20 20 19 19 19 19 18 18 18 18
19 21 22 22 22 24 23 22 22 21 21 21 21 21 21 22 21 21 21 21 21 21 21 21 21 21 21 21 21 20 20 20 20 20 20 19 19 19 19 18 18 18 18 18
18 19 20 22 23 23 22 21 21 20 20 20 20 20 20 21 21 21 21 21 21 21 21 21 21 21 20 20 20 20 20 19 19 19 19 19 19 19 18 18 18 18 18 17
18 20 20 20 22 23 22 20 20 20 19 19 20 18 18 20 20 20 20 20 20 20 20 20 20 20 20 19 19 19 19 19 19 19 18 18 18 18 18 18 17 17 17 17
18 18 19 20 22 22 20 19 20 20 19 19 18 18 18 19 19 19 19 20 20 20 20 20 20 20 19 19 19 19 19 18 18 18 18 18 18 17 17 17 17 17 17 17
17 18 18 20 20 20 19 20 20 19 19 19 18 18 19 19 19 19 19 19 19 19 19 19 19 19 19 19 18 18 18 18 18 18 17 17 17 17 17 17 17 17 16 16
16 17 17 19 19 20 20 19 19 19 19 19 18 18 18 18 18 19 19 19 19 18 18 18 18 18 18 18 18 18 18 17 17 17 17 17 17 16 16 16 16 16 16 16
16 16 17 18 19 19 19 19 19 19 19 19 18 18 18 18 18 18 18 18 18 18 18 18 18 18 18 17 17 17 17 17 17 16 16 16 16 16 16 16 16 16 16 16
15 16 17 18 18 18 18 19 19 19 19 18 18 17 17 17 18 18 18 18 17 17 17 17 17 17 17 17 17 16 16 16 16 16 16 16 16 15 15 15 15 15 15 15
15 16 15 16 18 18 18 18 18 18 17 17 17 17 17 17 17 17 17 17 16 16 16 16 16 16 16 16 16 16 16 16 15 15 15 15 15 15 15 15 15 15 15 15
17 17 17 17 18 18 18 18 17 17 17 17 17 17 17 16 16 16 16 16 16 16 16 16 15 15 15 15 15 15 15 15 15 15 15 15 15 14 14 14 14 14 14 14
18 17 17 17 17 17 17 17 17 17 16 16 16 16 16 16 15 15 15 15 15 15 15 15 15 15 15 15 15 14 14 14 14 14 14 14 14 14 14 14 14 14 14 14
17 17 17 17 17 17 17 17 16 16 16 16 15 15 15 15 15 14 14 14 14 14 14 14 14 14 14 14 14 14 14 14 14 14 14 14 14 14 13 13 13 13 13 13
17 17 17 17 17 16 16 16 16 15 15 15 15 15 14 14 14 14 14 14 14 13 13 13 13 13 13 13 13 13 13 13 13 13 13 13 13 13 13 13 13 13 13 13
16 16 16 16 16 16 16 16 15 15 15 14 14 14 14 14 13 13 13 13 13 13 13 13 13 13 13 13 13 13 13 13 13 12 12 12 12 12 12 12 12 12 12 12
16 16 16 16 16 15 15 15 15 15 14 14 14 14 13 13 13 13 13 13 13 13 13 12 12 12 12 12 12 12 12 12 12 12 12 12 12 12 12 12 12 12 12 12
16 16 15 15 15 15 15 15 14 14 14 14 13 13 13 13 13 12 12 12 12 12 12 12 12 12 12 12 12 12 12 12 12 12 12 12 12 12 12 11 11 11 11 11
15 15 15 15 15 15 14 14 14 14 13 13 13 13 13 12 12 12 12 12 12 12 12 11 11 11 11 11 11 11 11 11 11 11 11 11 11 11 11 11 11 11 11 11
14 14 14 14 14 14 14 14 13 13 13 13 13 13 12 12 12 12 12 11 11 11 11 11 11 11 11 11 11 11 11 11 11 11 11 11 11 11 11 11 10 10 10 10
14 14 14 14 14 13 13 13 13 13 13 13 13 12 12 12 12 12 11 11 11 11 11 11 11 10 10 10 10 10 10 10 10 10 10 10 10 10 10 10 10 10 10 10
14 14 13 13 13 13 13 13 13 13 12 12 12 12 12 12 12 11 11 11 11 11 11 10 10 10 10 10 10 10 10 10 10 10 10 10 10 10 10 10 9 9 9 9
13 13 13 13 13 13 13 12 12 12 12 12 12 12 12 11 11 11 11 11 11 11 10 10 10 10 10 10 10 10 9 9 9 9 9 9 9 9 9 9 9 9 9 9
13 13 13 13 13 13 13 12 12 12 12 12 12 11 11 11 11 11 11 11 10 10 10 10 10 10 10 10 9 9 9 9 9 9 9 9 9 9 8 8 8 8 8 8
13 13 13 13 13 12 12 12 12 12 12 11 11 11 11 11 11 11 10 10 10 10 10 10 10 10 9 9 9 9 9 9 8 8 8 8 8 8 8 8 8 8 8 8
13 13 13 12 12 12 12 12 12 11 11 11 11 11 11 11 10 10 10 10 10 10 10 9 9 9 9 9 9 8 8 8 8 8 8 8 8 7 7 7 7 7 7 7
Wind_Speed
4 5 3 2 3 1 3 7 7 9 10 10 10 8 5 4 5 6 6 8 10 11 10 9 8 8 8 8 8 9 9 9 9 8 7 6 6 6 5 5 6 5 5 5
1 0 1 2 3 2 2 3 6 7 6 5 4 6 6 5 6 7 7 7 9 9 9 9 8 8 7 7 7 7 8 8 7 7 7 7 6 6 6 5 5 5 4 4
2 2 3 3 3 2 1 1 6 7 6 5 5 5 6 6 7 7 7 7 8 9 9 9 9 8 8 8 7 7 7 7 6 7 7 7 6 5 6 6 5 5 5 5
1 3 2 6 2 3 4 2 2 4 6 7 8 6 4 5 7 6 6 6 6 7 7 6 7 7 6 6 7 7 6 6 6 6 6 6 6 6 6 5 5 5 5 6
3 2 3 5 3 2 3 1 1 4 7 8 9 8 5 3 5 6 5 5 5 6 6 6 6 6 6 5 5 5 5 5 5 5 6 6 7 7 5 5 5 5 4 5
4 4 4 6 5 1 6 1 2 5 7 7 7 5 1 2 6 5 3 4 5 5 5 5 4 5 6 5 4 4 3 4 4 4 5 6 6 5 4 4 5 4 4 5
3 3 5 6 5 2 4 5 3 5 7 6 4 4 4 4 5 5 4 5 6 6 5 4 4 5 5 4 3 3 2 2 2 3 4 4 4 4 3 4 4 4 4 4
3 3 5 6 3 3 5 4 5 6 6 6 7 8 7 7 6 6 5 5 6 6 4 3 4 5 4 3 2 1 1 1 1 2 3 3 3 3 3 3 3 3 3 3
4 4 4 1 2 2 5 7 5 6 7 9 8 7 6 6 5 5 5 4 5 5 4 3 3 4 3 2 2 2 2 1 2 2 2 2 3 4 3 3 3 3 3 4
2 1 2 5 6 6 7 7 7 8 9 9 9 6 6 6 5 4 5 4 4 5 4 3 2 3 2 1 1 2 1 1 2 2 2 1 1 2 2 3 3 3 3 4
2 1 5 6 5 6 7 8 8 7 8 8 8 7 5 5 4 5 5 4 3 4 3 1 1 2 1 1 2 1 1 1 1 1 1 1 1 1 2 3 4 5 4 4
3 4 3 1 2 5 7 7 7 8 7 6 7 7 5 5 4 4 4 4 4 3 2 1 1 1 1 1 1 1 0 1 1 1 1 1 1 1 2 2 2 4 6 5
4 3 4 3 3 5 6 6 6 7 7 6 5 5 5 4 4 4 4 4 3 2 2 1 2 2 2 2 1 0 1 1 1 1 1 2 2 2 2 3 3 3 4 5
6 6 5 4 5 7 8 8 8 7 6 6 5 5 5 5 5 5 4 3 3 4 4 3 3 3 3 2 2 1 1 1 1 2 2 2 2 2 2 2 2 3 4 5
4 5 6 5 6 7 7 8 9 7 6 5 5 6 6 6 5 3 3 4 4 5 4 4 3 4 4 3 2 1 1 1 1 2 2 2 2 2 2 2 2 3 3 3
4 6 7 8 7 7 8 9 8 6 6 5 6 6 6 6 5 4 4 4 4 3 3 3 3 4 4 3 2 2 1 2 2 1 2 2 1 1 2 2 2 2 3 3
6 6 7 7 6 6 6 6 7 6 6 6 6 6 6 6 5 4 3 3 3 2 2 2 3 4 4 3 2 2 2 2 2 1 1 2 2 2 2 2 2 3 4 3
6 6 7 7 7 6 6 6 6 6 6 5 6 6 6 5 3 2 1 2 3 4 4 3 3 4 4 4 3 2 2 2 1 2 2 2 2 2 2 2 2 3 3 2
7 7 6 7 7 7 6 6 5 5 5 6 6 5 4 3 2 1 2 3 3 3 4 4 4 3 3 4 4 2 2 2 2 2 2 2 2 2 2 2 3 3 2 2
6 6 6 6 6 7 7 5 5 5 5 5 5 4 3 2 2 2 2 2 1 1 3 3 3 3 4 4 5 2 2 2 2 3 2 2 2 2 2 2 3 3 2 2
5 6 6 6 5 5 5 5 5 5 4 4 5 4 3 1 1 2 2 1 2 3 3 4 3 3 4 4 4 3 3 3 2 2 2 2 2 2 2 2 2 2 2 2
4 5 5 5 5 4 3 4 4 4 4 3 3 3 3 2 1 1 1 1 2 2 2 2 3 3 4 4 3 3 3 3 3 2 2 2 2 3 3 2 2 2 2 2
3 4 4 4 4 4 3 3 3 3 3 2 3 3 3 2 2 2 1 2 2 2 1 2 4 5 5 3 3 3 3 3 3 3 2 2 2 2 2 2 2 2 2 2
4 3 3 3 4 4 3 1 1 2 2 2 2 2 2 2 0 1 2 1 2 1 1 3 4 5 5 3 3 3 3 3 3 3 3 3 2 2 2 2 2 2 2 3
3 3 3 4 4 2 2 2 3 3 2 2 2 2 1 2 2 1 0 0 1 2 2 3 5 5 4 3 3 3 3 3 3 3 3 3 2 2 2 2 2 2 2 2
3 3 3 3 3 2 2 2 2 2 2 2 1 1 1 1 1 1 1 1 1 2 2 2 3 3 3 3 4 4 4 4 4 4 4 3 3 3 2 2 3 2 2 3
3 3 3 3 2 2 2 3 3 2 2 2 1 0 0 1 1 1 2 1 1 1 1 2 2 2 2 3 3 3 3 3 4 4 4 3 3 2 2 3 2 2 2 3
Wind_Direction
200 213 192 228 258 236 180 184 180 201 198 209 197 182 168 152 142 136 133 144 157 163 164 166 167 171 175 182 186 183 181 187 196 197 192 189 190 193 196 198 200 199 203 211
9 42 58 320 281 217 211 172 167 165 206 218 178 147 130 130 135 129 131 139 148 153 153 159 163 171 172 176 177 171 178 191 195 191 189 192 194 192 192 201 201 191 197 204
273 313 37 317 280 199 183 161 158 176 204 165 138 145 147 138 135 141 149 150 153 153 158 165 171 171 172 178 173 171 181 190 189 188 189 193 193 189 197 205 202 201 206 211
137 57 214 245 254 125 115 80 96 143 158 155 150 140 115 123 128 134 140 144 148 151 154 160 160 158 159 157 160 169 181 189 192 190 198 200 192 199 206 204 205 211 214 220
124 161 267 295 302 151 120 24 30 131 144 133 122 95 59 59 109 128 138 137 132 135 141 137 143 149 139 141 147 156 175 186 191 193 196 201 204 209 207 200 207 213 215 217
129 147 219 254 284 233 102 352 301 129 142 141 122 119 161 75 90 88 97 114 115 107 107 115 124 128 129 137 136 154 180 191 188 188 196 208 211 209 204 200 209 213 222 223
154 185 249 268 292 55 124 218 225 138 137 129 116 140 147 107 88 88 84 101 103 101 105 117 123 120 122 131 157 187 178 162 173 195 206 209 208 206 202 202 205 211 221 231
150 172 247 301 25 137 189 169 126 110 111 105 109 111 112 106 94 81 78 93 104 103 101 99 110 119 125 154 188 170 165 180 215 231 229 221 212 214 206 199 207 220 228 246
174 206 246 329 127 156 133 122 117 118 119 119 113 116 118 113 102 89 82 85 101 108 97 76 86 116 138 199 186 166 177 229 251 255 252 231 214 214 212 206 211 225 230 243
73 2 73 70 68 69 91 104 112 116 119 116 113 116 115 108 101 92 82 83 89 95 94 72 63 94 135 182 155 148 181 234 253 243 257 263 227 205 210 220 222 228 230 241
111 129 53 44 71 84 82 90 94 98 109 114 114 110 105 101 91 84 75 63 78 90 91 84 68 65 53 60 101 118 186 223 243 215 214 222 205 207 216 231 221 217 228 228
195 203 143 166 135 109 100 96 99 100 94 98 115 118 106 93 84 87 75 57 58 57 72 77 63 39 12 23 73 111 208 242 218 211 210 204 197 297 310 255 259 238 227 228
163 153 129 136 105 103 106 107 105 110 115 111 104 112 106 96 77 75 72 57 44 24 16 30 38 12 349 13 45 53 255 268 264 245 226 218 214 211 261 303 305 282 263 258
119 108 92 97 106 104 108 107 102 96 93 103 112 112 109 101 88 76 64 46 39 38 32 33 32 3 344 4 25 352 298 274 267 253 248 246 235 231 227 239 282 297 292 261
101 115 128 117 106 106 110 107 101 96 93 86 92 98 100 96 87 74 61 55 51 50 35 30 26 353 345 2 14 343 316 304 300 290 276 268 257 248 246 244 248 269 289 284
109 95 99 103 106 103 102 106 108 106 103 96 93 98 101 100 89 72 59 59 53 36 12 5 358 332 338 353 356 344 312 331 334 320 311 302 287 270 265 259 255 254 257 257
111 108 107 104 106 104 106 112 115 113 107 103 105 103 94 86 78 67 49 39 40 11 1 10 347 335 341 344 346 329 322 318 332 327 289 276 277 270 261 263 267 264 261 252
119 122 123 128 125 111 102 100 104 109 112 114 107 99 96 94 89 80 71 55 30 13 1 348 342 342 350 349 347 337 326 315 315 316 310 308 299 287 278 276 282 284 285 284
91 94 97 106 111 115 112 108 112 113 111 111 108 105 106 103 93 73 66 58 38 10 339 335 342 357 349 344 351 340 337 331 329 326 319 311 305 298 292 296 298 293 289 281
93 97 97 93 94 110 114 112 107 103 109 116 114 106 93 79 70 65 68 63 353 294 306 335 350 351 340 342 356 347 343 336 330 323 320 314 304 298 289 282 285 294 297 282
106 105 99 97 97 106 116 119 115 115 120 126 128 135 137 123 81 84 86 41 318 327 342 346 351 346 346 347 353 357 352 343 335 326 320 315 315 314 306 297 294 298 295 287
108 107 107 106 108 107 110 113 116 118 117 117 119 124 124 122 100 73 88 230 277 319 347 343 335 343 352 350 350 349 350 349 339 337 339 327 319 314 316 318 313 307 299 291
114 111 111 113 119 124 109 105 120 128 131 134 136 141 149 174 178 160 248 279 281 305 325 314 318 339 359 358 348 343 345 348 341 336 334 325 310 301 304 314 316 316 318 312
116 112 115 116 109 103 100 114 118 121 130 132 146 160 153 134 75 259 223 264 290 316 314 315 332 352 6 2 354 358 354 346 338 334 333 329 320 314 315 322 331 332 340 342
118 117 113 111 112 130 149 115 90 90 92 87 82 71 95 140 156 200 167 18 21 30 4 354 358 359 9 3 5 7 2 357 353 349 345 339 337 351 354 354 354 355 358 355
114 121 123 127 134 137 127 113 114 114 103 89 62 64 56 59 92 103 102 95 83 48 20 5 11 14 19 17 13 13 14 11 14 18 19 20 25 30 19 7 2 4 10 11
96 95 97 89 77 90 103 110 114 115 118 114 103 61 53 79 83 84 79 67 64 41 21 19 22 23 20 17 16 25 32 30 23 21 25 31 34 32 20 22 24 28 26 24
Height
1470 1466 1465 1466 1465 1466 1474 1482 1491 1489 1486 1480 1477 1476 1477 1479 1481 1483 1483 1485 1489 1492 1495 1499 1502 1504 1506 1508 1510 1512 1513 1514 1515 1517 1519 1520 1521 1522 1523 1523 1523 1524 1524 1525
1471 1464 1465 1467 1463 1464 1467 1470 1475 1478 1481 1472 1473 1474 1476 1479 1481 1482 1484 1486 1488 1491 1493 1496 1499 1502 1504 1506 1507 1509 1510 1512 1513 1515 1516 1517 1518 1519 1519 1520 1520 1520 1521 1521
1481 1470 1468 1478 1469 1466 1467 1466 1470 1478 1475 1471 1474 1475 1476 1477 1479 1481 1484 1486 1488 1489 1491 1494 1496 1499 1501 1503 1505 1506 1507 1509 1510 1511 1512 1513 1514 1515 1516 1516 1516 1516 1517 1518
1484 1480 1492 1478 1462 1460 1463 1465 1465 1466 1468 1468 1471 1474 1476 1477 1478 1480 1483 1485 1487 1489 1491 1493 1495 1497 1498 1500 1502 1503 1504 1505 1506 1507 1508 1509 1510 1511 1511 1512 1512 1513 1513 1514
1488 1491 1486 1472 1462 1462 1466 1471 1466 1467 1468 1470 1471 1474 1478 1479 1479 1481 1483 1485 1487 1489 1491 1492 1494 1496 1497 1498 1499 1500 1501 1502 1503 1504 1504 1505 1506 1507 1507 1508 1508 1509 1509 1509
1485 1490 1492 1477 1461 1457 1462 1476 1467 1466 1468 1470 1470 1479 1481 1480 1480 1482 1484 1486 1487 1488 1490 1491 1493 1494 1495 1496 1497 1497 1498 1499 1499 1500 1501 1501 1502 1503 1503 1504 1504 1505 1505 1505
1484 1487 1481 1466 1459 1458 1477 1478 1467 1466 1467 1469 1471 1475 1479 1480 1482 1483 1485 1486 1487 1488 1489 1490 1491 1492 1493 1494 1494 1495 1496 1496 1496 1496 1497 1498 1498 1499 1500 1500 1500 1500 1500 1500
1483 1488 1485 1463 1460 1465 1467 1464 1465 1466 1468 1470 1472 1474 1477 1480 1483 1484 1485 1485 1486 1487 1488 1489 1490 1490 1491 1492 1492 1493 1493 1493 1493 1493 1494 1494 1495 1495 1495 1495 1495 1495 1495 1495
1476 1478 1468 1462 1461 1462 1461 1463 1465 1467 1468 1471 1472 1475 1478 1480 1482 1484 1486 1486 1486 1486 1487 1488 1489 1489 1490 1491 1491 1491 1491 1490 1490 1490 1491 1491 1491 1491 1491 1491 1491 1491 1491 1490
1472 1471 1467 1465 1464 1464 1464 1465 1467 1468 1470 1472 1473 1476 1478 1480 1482 1483 1485 1485 1486 1487 1487 1487 1488 1488 1489 1489 1489 1489 1488 1488 1487 1487 1487 1487 1487 1487 1487 1487 1487 1487 1486 1486
1473 1471 1469 1468 1468 1468 1469 1469 1470 1471 1472 1473 1476 1478 1479 1479 1480 1481 1483 1485 1485 1486 1486 1487 1487 1487 1487 1487 1487 1486 1486 1485 1485 1484 1484 1484 1484 1484 1483 1483 1483 1483 1483 1482
1473 1469 1469 1470 1469 1470 1470 1471 1472 1473 1475 1477 1479 1480 1481 1481 1481 1481 1482 1484 1485 1485 1485 1485 1485 1485 1485 1485 1485 1484 1483 1482 1482 1482 1481 1481 1480 1480 1480 1479 1479 1479 1479 1478
1466 1467 1468 1469 1469 1470 1471 1473 1474 1476 1477 1479 1480 1482 1483 1483 1482 1482 1483 1484 1484 1484 1484 1483 1483 1483 1483 1483 1483 1482 1481 1480 1480 1479 1478 1477 1477 1476 1475 1475 1475 1475 1474 1474
1465 1467 1468 1469 1470 1471 1473 1474 1476 1477 1479 1479 1481 1482 1483 1483 1483 1483 1483 1483 1483 1483 1483 1482 1482 1482 1481 1480 1480 1479 1479 1478 1477 1476 1476 1475 1474 1474 1473 1472 1471 1470 1470 1470
1467 1468 1469 1470 1471 1472 1474 1476 1477 1478 1480 1481 1482 1482 1482 1482 1483 1484 1484 1483 1483 1482 1482 1481 1481 1480 1480 1479 1478 1476 1476 1475 1474 1474 1473 1472 1472 1471 1470 1469 1468 1467 1466 1465
1469 1470 1470 1471 1473 1474 1475 1476 1478 1480 1481 1482 1483 1483 1483 1483 1483 1484 1484 1483 1483 1482 1481 1480 1479 1479 1477 1476 1475 1474 1473 1472 1471 1471 1470 1469 1468 1467 1467 1466 1464 1463 1462 1461
1469 1470 1472 1473 1474 1476 1477 1478 1479 1480 1482 1482 1483 1483 1483 1484 1484 1484 1483 1483 1483 1482 1481 1480 1478 1477 1476 1474 1473 1472 1471 1469 1468 1467 1466 1466 1465 1464 1463 1462 1461 1460 1459 1458
1469 1470 1472 1473 1475 1477 1478 1479 1480 1481 1482 1483 1483 1483 1484 1484 1484 1484 1484 1483 1482 1481 1480 1479 1478 1476 1475 1474 1472 1471 1469 1467 1466 1465 1464 1463 1462 1461 1461 1459 1458 1456 1455 1455
1470 1471 1473 1475 1476 1477 1479 1480 1481 1482 1482 1483 1483 1484 1484 1484 1485 1484 1484 1483 1482 1481 1480 1479 1477 1476 1474 1473 1471 1470 1468 1466 1465 1464 1463 1462 1460 1459 1458 1457 1456 1454 1453 1452
1472 1473 1475 1476 1477 1478 1479 1480 1481 1482 1483 1483 1483 1484 1484 1484 1484 1484 1483 1482 1481 1480 1479 1478 1476 1474 1473 1471 1470 1468 1467 1465 1464 1462 1461 1460 1458 1457 1456 1455 1454 1452 1451 1450
1473 1474 1476 1477 1478 1480 1480 1480 1481 1482 1483 1483 1483 1483 1483 1483 1483 1483 1482 1481 1481 1480 1478 1477 1475 1473 1471 1470 1468 1467 1465 1464 1462 1461 1459 1458 1456 1455 1454 1452 1451 1450 1449 1448
1473 1474 1476 1477 1478 1479 1480 1480 1481 1482 1482 1482 1482 1482 1482 1483 1482 1482 1481 1480 1479 1478 1477 1476 1474 1473 1471 1469 1468 1466 1464 1462 1461 1459 1458 1456 1454 1453 1451 1450 1449 1448 1447 1446
1474 1475 1476 1477 1477 1478 1479 1480 1481 1481 1481 1482 1482 1482 1482 1482 1482 1481 1480 1480 1479 1478 1477 1476 1474 1473 1471 1469 1467 1465 1463 1462 1460 1458 1456 1454 1453 1451 1449 1448 1447 1446 1444 1443
1474 1475 1476 1477 1478 1478 1479 1480 1480 1481 1481 1481 1481 1481 1481 1481 1481 1480 1480 1479 1478 1477 1476 1475 1474 1472 1470 1468 1466 1465 1463 1461 1459 1457 1454 1452 1450 1449 1447 1446 1445 1443 1442 1441
1475 1475 1476 1477 1478 1478 1479 1480 1480 1480 1481 1481 1481 1481 1481 1481 1480 1480 1479 1478 1477 1476 1475 1474 1473 1471 1469 1468 1466 1464 1462 1460 1458 1455 1452 1450 1448 1447 1445 1444 1443 1441 1440 1439
1475 1476 1477 1477 1478 1479 1479 1480 1480 1480 1480 1480 1480 1480 1480 1480 1480 1479 1478 1478 1477 1476 1475 1473 1472 1470 1469 1467 1465 1463 1461 1459 1456 1454 1451 1449 1447 1446 1444 1443 1442 1440 1438 1437
1477 1477 1478 1478 1479 1479 1480 1480 1480 1480 1480 1480 1480 1480 1480 1480 1479 1478 1478 1477 1476 1475 1474 1472 1471 1470 1468 1466 1464 1462 1460 1458 1455 1453 1451 1449 1447 1445 1444 1442 1440 1439 1437 1435